When you browse on this site, cookies collect data to enhance your experience and personalize the content and advertising you see.
Visit our Privacy Policy to learn more. By continuing to use the site, you agree to this use of cookies and data.
  • en Suisse
  • Liste des pays
  • À 7 jours
  • Température de l'eau
  • Carte météo
  • Widgets météo
  • user-avatar
    Se connecter

    Météo par heure à Mazari Sharif

    Ce jour, 14 Octobre, Lundi

    Heure Température Précipitation Vent Pression Humidité
    00:00 +10°C° 0 mm 2 m/s 660 mmHg 46%
    01:00 +10°C° 0 mm 2 m/s 660 mmHg 46%
    02:00 +10°C° 0 mm 2 m/s 661 mmHg 46%
    03:00 +9°C° 0 mm 3 m/s 661 mmHg 46%
    04:00 +8°C° 0 mm 2 m/s 661 mmHg 47%
    05:00 +9°C° 0 mm 2 m/s 662 mmHg 44%
    06:00 +10°C° 0 mm 2 m/s 662 mmHg 41%
    07:00 +12°C° 0 mm 2 m/s 663 mmHg 38%
    08:00 +12°C° 0 mm 3 m/s 663 mmHg 36%
    09:00 +14°C° 0 mm 3 m/s 664 mmHg 33%
    10:00 +16°C° 0 mm 3 m/s 665 mmHg 35%
    11:00 +15°C° 0 mm 4 m/s 664 mmHg 33%
    12:00 +17°C° 0 mm 4 m/s 664 mmHg 32%
    13:00 +16°C° 0 mm 5 m/s 663 mmHg 30%
    14:00 +15°C° 0 mm 4 m/s 663 mmHg 33%
    15:00 +14°C° 0 mm 4 m/s 663 mmHg 36%
    16:00 +14°C° 0 mm 3 m/s 662 mmHg 39%
    17:00 +12°C° 0 mm 3 m/s 662 mmHg 45%
    18:00 +10°C° 0 mm 2 m/s 662 mmHg 52%
    19:00 +9°C° 0 mm 1 m/s 662 mmHg 58%
    20:00 +9°C° 0 mm 1 m/s 662 mmHg 59%
    21:00 +9°C° 0 mm 1 m/s 662 mmHg 60%
    22:00 +9°C° 0 mm 1 m/s 662 mmHg 61%
    23:00 +8°C° 0 mm 1 m/s 661 mmHg 63%

    Demain, 15 Octobre, Mardi

    Heure Température Précipitation Vent Pression Humidité
    00:00 +8°C° 0 mm 1 m/s 661 mmHg 65%
    01:00 +7°C° 0 mm 1 m/s 661 mmHg 68%
    02:00 +7°C° 0 mm 1 m/s 660 mmHg 68%
    03:00 +7°C° 0 mm 1 m/s 660 mmHg 69%
    04:00 +6°C° 0 mm 1 m/s 660 mmHg 69%
    05:00 +8°C° 0 mm 1 m/s 660 mmHg 62%
    06:00 +10°C° 0 mm 1 m/s 661 mmHg 55%
    07:00 +11°C° 0 mm 1 m/s 662 mmHg 48%
    08:00 +13°C° 0 mm 1 m/s 662 mmHg 43%
    09:00 +15°C° 0 mm 2 m/s 662 mmHg 38%
    10:00 +16°C° 0 mm 2 m/s 662 mmHg 33%
    11:00 +17°C° 0 mm 2 m/s 662 mmHg 31%
    12:00 +18°C° 0 mm 3 m/s 661 mmHg 29%
    13:00 +19°C° 0 mm 3 m/s 661 mmHg 28%
    14:00 +18°C° 0 mm 3 m/s 661 mmHg 29%
    15:00 +18°C° 0 mm 2 m/s 660 mmHg 30%
    16:00 +18°C° 0 mm 2 m/s 660 mmHg 31%
    17:00 +15°C° 0 mm 1 m/s 659 mmHg 40%
    18:00 +12°C° 0 mm 1 m/s 659 mmHg 49%
    19:00 +9°C° 0 mm 0 m/s 658 mmHg 58%
    20:00 +8°C° 0 mm 0 m/s 658 mmHg 59%
    21:00 +8°C° 0 mm 0 m/s 657 mmHg 61%
    22:00 +8°C° 0 mm 0 m/s 657 mmHg 63%
    23:00 +7°C° 0 mm 0 m/s 657 mmHg 63%

    Après-demain, 16 Octobre, Mercredi

    Heure Température Précipitation Vent Pression Humidité
    00:00 +7°C° 0 mm 0 m/s 656 mmHg 63%
    01:00 +7°C° 0 mm 0 m/s 656 mmHg 63%
    02:00 +6°C° 0 mm 0 m/s 656 mmHg 64%
    03:00 +6°C° 0 mm 0 m/s 656 mmHg 65%
    04:00 +6°C° 0 mm 0 m/s 655 mmHg 66%
    05:00 +8°C° 0 mm 0 m/s 656 mmHg 57%
    06:00 +10°C° 0 mm 0 m/s 657 mmHg 48%
    07:00 +12°C° 0 mm 0 m/s 658 mmHg 39%
    08:00 +15°C° 0 mm 1 m/s 658 mmHg 35%
    09:00 +16°C° 0 mm 1 m/s 658 mmHg 31%
    10:00 +18°C° 0 mm 2 m/s 659 mmHg 27%
    11:00 +19°C° 0 mm 2 m/s 658 mmHg 26%
    12:00 +20°C° 0 mm 3 m/s 658 mmHg 25%
    13:00 +20°C° 0 mm 3 m/s 658 mmHg 24%
    14:00 +20°C° 0 mm 3 m/s 657 mmHg 25%
    15:00 +19°C° 0 mm 2 m/s 657 mmHg 27%
    16:00 +19°C° 0 mm 2 m/s 657 mmHg 28%
    17:00 +16°C° 0 mm 1 m/s 656 mmHg 35%
    18:00 +14°C° 0 mm 1 m/s 656 mmHg 42%
    19:00 +11°C° 0 mm 1 m/s 655 mmHg 49%
    20:00 +11°C° 0 mm 1 m/s 655 mmHg 50%
    21:00 +10°C° 0 mm 1 m/s 656 mmHg 50%
    22:00 +10°C° 0 mm 1 m/s 656 mmHg 51%
    23:00 +10°C° 0 mm 1 m/s 655 mmHg 52%

    17 Octobre, Jeudi

    Heure Température Précipitation Vent Pression Humidité
    00:00 +9°C° 0 mm 1 m/s 655 mmHg 53%
    01:00 +9°C° 0 mm 1 m/s 655 mmHg 54%
    02:00 +9°C° 0 mm 1 m/s 655 mmHg 55%
    03:00 +9°C° 0 mm 1 m/s 655 mmHg 56%
    04:00 +8°C° 0 mm 1 m/s 655 mmHg 57%
    05:00 +10°C° 0 mm 1 m/s 656 mmHg 50%
    06:00 +12°C° 0 mm 1 m/s 657 mmHg 42%
    07:00 +13°C° 0 mm 1 m/s 658 mmHg 35%
    08:00 +15°C° 0 mm 1 m/s 658 mmHg 31%
    09:00 +18°C° 0 mm 1 m/s 659 mmHg 27%
    10:00 +19°C° 0 mm 2 m/s 659 mmHg 23%
    11:00 +19°C° 0 mm 2 m/s 659 mmHg 22%
    12:00 +20°C° 0 mm 3 m/s 659 mmHg 20%
    13:00 +21°C° 0 mm 3 m/s 659 mmHg 19%
    14:00 +20°C° 0 mm 3 m/s 659 mmHg 19%
    15:00 +20°C° 0 mm 3 m/s 659 mmHg 20%
    16:00 +19°C° 0 mm 3 m/s 659 mmHg 20%
    17:00 +16°C° 0 mm 2 m/s 658 mmHg 25%
    18:00 +14°C° 0 mm 2 m/s 658 mmHg 29%
    19:00 +11°C° 0 mm 1 m/s 657 mmHg 34%
    20:00 +11°C° 0 mm 1 m/s 657 mmHg 34%
    21:00 +11°C° 0 mm 1 m/s 657 mmHg 35%
    22:00 +11°C° 0 mm 1 m/s 657 mmHg 36%
    23:00 +10°C° 0 mm 1 m/s 657 mmHg 38%

    18 Octobre, Vendredi

    Heure Température Précipitation Vent Pression Humidité
    00:00 +10°C° 0 mm 1 m/s 657 mmHg 40%
    01:00 +9°C° 0 mm 1 m/s 656 mmHg 42%
    02:00 +9°C° 0 mm 1 m/s 656 mmHg 45%
    03:00 +8°C° 0 mm 1 m/s 656 mmHg 48%
    04:00 +8°C° 0 mm 1 m/s 656 mmHg 50%
    05:00 +10°C° 0 mm 1 m/s 657 mmHg 43%
    06:00 +12°C° 0 mm 1 m/s 657 mmHg 36%
    07:00 +13°C° 0 mm 1 m/s 658 mmHg 28%
    08:00 +15°C° 0 mm 1 m/s 658 mmHg 25%
    09:00 +18°C° 0 mm 1 m/s 659 mmHg 23%
    10:00 +20°C° 0 mm 1 m/s 659 mmHg 20%
    11:00 +20°C° 0 mm 2 m/s 659 mmHg 19%
    12:00 +21°C° 0 mm 3 m/s 658 mmHg 18%
    13:00 +21°C° 0 mm 3 m/s 658 mmHg 17%
    14:00 +21°C° 0 mm 3 m/s 658 mmHg 18%
    15:00 +20°C° 0 mm 3 m/s 657 mmHg 19%
    16:00 +19°C° 0 mm 2 m/s 657 mmHg 20%
    17:00 +17°C° 0 mm 2 m/s 656 mmHg 25%
    18:00 +14°C° 0 mm 1 m/s 655 mmHg 30%
    19:00 +11°C° 0 mm 1 m/s 655 mmHg 35%
    20:00 +11°C° 0 mm 1 m/s 655 mmHg 38%
    21:00 +11°C° 0 mm 1 m/s 655 mmHg 41%
    22:00 +10°C° 0 mm 1 m/s 654 mmHg 43%
    23:00 +9°C° 0 mm 0 m/s 654 mmHg 48%

    19 Octobre, Samedi

    Heure Température Précipitation Vent Pression Humidité
    00:00 +8°C° 0 mm 0 m/s 654 mmHg 52%
    01:00 +8°C° 0 mm 0 m/s 654 mmHg 56%
    02:00 +7°C° 0 mm 0 m/s 653 mmHg 57%
    03:00 +7°C° 0 mm 0 m/s 653 mmHg 58%
    04:00 +7°C° 0 mm 0 m/s 653 mmHg 58%
    05:00 +9°C° 0 mm 0 m/s 654 mmHg 49%
    06:00 +11°C° 0 mm 0 m/s 655 mmHg 40%
    07:00 +13°C° 0 mm 0 m/s 656 mmHg 30%
    08:00 +16°C° 0 mm 1 m/s 657 mmHg 26%
    09:00 +19°C° 0 mm 1 m/s 657 mmHg 23%
    10:00 +20°C° 0 mm 2 m/s 658 mmHg 19%
    11:00 +21°C° 0 mm 3 m/s 658 mmHg 18%
    12:00 +21°C° 0 mm 3 m/s 658 mmHg 18%
    13:00 +22°C° 0 mm 4 m/s 658 mmHg 17%
    14:00 +21°C° 0 mm 3 m/s 657 mmHg 18%
    15:00 +20°C° 0 mm 3 m/s 657 mmHg 19%
    16:00 +20°C° 0 mm 2 m/s 657 mmHg 19%
    17:00 +18°C° 0 mm 2 m/s 657 mmHg 22%
    18:00 +16°C° 0 mm 1 m/s 657 mmHg 24%
    19:00 +14°C° 0 mm 1 m/s 657 mmHg 27%
    20:00 +14°C° 0 mm 1 m/s 657 mmHg 27%
    21:00 +14°C° 0 mm 1 m/s 657 mmHg 27%
    22:00 +14°C° 0 mm 1 m/s 657 mmHg 27%
    23:00 +14°C° 0 mm 1 m/s 657 mmHg 26%
    Voir plus